User: anonymous   Login
Location: Caltech
(34.1382°N, 118.1253°W)
Time: 13:42:44
(UTC-07:00)
Language:

JAS-1B - Orbit

View from above orbital plane
View from above orbital plane
View from above satellite
View from above satellite

Ground track
Ground track

The orbit data is extracted from the following two-line orbital elements,

1 20480U 90013C   17295.23726062 -.00000036  00000-0 -16012-4 0  9994
2 20480  99.0719  44.7286 0540927 103.3313 262.8662 12.83417248298026
Epoch (UTC): 22 October 2017 05:41:39
Eccentricity: 0.0540927
inclination: 99.0719°
perigee height: 911 km
apogee height: 1744 km
right ascension of ascending node: 44.7286°
argument of perigee: 103.3313°
revolutions per day: 12.83417248
mean anomaly at epoch: 262.8662°
orbit number at epoch: 29802

The dashed part of the orbit path shows where the satellite is in the earth's shadow,  

DLR